Starlink 4622

operational
NORAD ID: 53648 Int'l Des: 2022-105 Owner: SPXS Country: US Constellation: starlink
LEOCIRCULARRETROGRADESSO

About Starlink 4622

Description loading...

Live Position

Loading 3D Globe...

Upcoming Passes

Altitude History

Altitude vs Time

uPlot chart will show altitude changes over time

Two-Line Element Set

1 53648U 22105A 25352.26243298 -.00000219 00000-0 -12500-4 0 9995
2 53648 97.6011 230.4921 0004585 29.7925 330.3560 15.01260332181024
Epoch: Dec 18, 2025 • Age: 6 hours

Current Status

Altitude 570.4 km
Velocity 7.58 km/s
Sub-Earth Point -24.56°S, 41.96°W
Launch Date Aug 31, 2022
Age 3.2 years
Type internet

Technical Details

Classification Payload
Mass 300.00 kg
Dry Mass 290.00 kg
Total Mass 300.00 kg
Length 0.20 m
Diameter 2.80 m
Span 9.00 m
Shape Box + pan
Manufacturer SPXS
Bus Type Starlink
Phase Status In Orbit
Owner/State SPXS/US

Large Constellations

Loading constellations...